map of KOE home
Great Circle Mapper logo
KOE - Airport
Location
City:  Kupang, Indonesia
Name:Eltari
ICAO / IATA:WATT / KOE

Details
Type:Airport (Aerodrome, Airfield)
Use:Public/Civil, Military, International (customs port of entry)
Latitude:1010'18"S (-10.171582)
Longitude:12340'16"E (123.671136)
Datum:WGS 1984
Elevation:335 ft (102 m)
Runways:2
Longest:8202 × 148 ft (2500 × 45 m), paved

Time
Time Zone:UTC+8
Local Time:

Weather
METAR:WATT 181300Z 10007KT 8000 FEW020 25/22 Q1015 NOSIG
TAF:WATT 181100Z 1812/1912 10007KT 8000 NSC
BECMG 1814/1815 10004KT
BECMG 1821/1822 9999
BECMG 1900/1901 33005KT FEW020

Related Locations
Nearby:
Farthest:OGL: 12173 mi / 19590 km
Ogle, GY

Find:

   beyond  
but within

Other Information
Maps:
NOTAMs:
Links:
Sources:

  
flag of Indonesia   

Sectional Chart

Flight Planning
at skyvector.com

Satellite Image

Google Maps Satellite View

 

Copyright © 2004-2014 Karl L. Swartz. All rights reserved.
The Great Circle Mapper name and logo are trademarks of the Great Circle Mapper.
All other trademarks mentioned herein belong to their respective owners.
Please see credits for attibutions and further copyright information.

  Follow gcmap on Facebook Follow gcmap on Twitter

hCard Microformat

Geo Microformat